Location: Moscow
(38.3171°N, 79.0889°W)
Time: 22:21:24
(UTC+00:00)

NOSS 3-4 (C) - Pass Details

Date: 07 November 2025
Orbit: 773 x 1438 km, 63.4° (Epoch: 02 December)

Event Time Altitude Azimuth Distance (km) Brightness Sun altitude
Rises 23:20:57 0° 330° (NNW) 3,768 6.8 -14.2°
Reaches altitude 10° 23:23:27 10° 334° (NNW) 2,905 6.2 -14.7°
Maximum altitude 23:30:22 59° 54° (NE) 1,370 4.0 -16.0°
Drops below altitude 10° 23:38:24 10° 132° (SE) 3,361 5.9 -17.6°
Enters shadow 23:40:29 - 135° (SE) 4,063 6.4 -18.0°
